Time,TemperatureF,DewpointF,PressureIn,WindDirection,WindDirectionDegrees,WindSpeedMPH,WindSpeedGustMPH,Humidity,HourlyPrecipIn,Conditions,Clouds,dailyrainin,SolarRadiationWatts/m^2,SoftwareType,DateUTC
2013-01-16 00:00:00,40.6,37.6,30.14,NW,315,4.0,10.0,89,0.00,,,0.00,0.00,VWS V14.00,2013-01-16 06:00:00,
2013-01-16 00:15:00,40.6,37.6,30.16,NW,315,3.0,9.0,89,0.00,,,0.00,0.00,VWS V14.00,2013-01-16 06:15:00,
2013-01-16 00:30:00,40.6,37.6,30.16,WNW,292,3.0,10.0,89,0.00,,,0.00,0.00,VWS V14.00,2013-01-16 06:30:00,
2013-01-16 00:45:00,40.6,37.3,30.16,NW,315,3.0,10.0,88,0.00,,,0.00,0.00,VWS V14.00,2013-01-16 06:45:00,
2013-01-16 01:00:00,40.7,37.1,30.17,NW,315,4.0,10.0,87,0.00,,,0.00,0.00,VWS V14.00,2013-01-16 07:00:00,
2013-01-16 01:15:00,40.7,37.1,30.17,NW,315,3.0,6.0,87,0.00,,,0.00,0.00,VWS V14.00,2013-01-16 07:15:00,
2013-01-16 01:30:00,40.6,36.8,30.17,NW,315,3.0,11.0,86,0.00,,,0.00,0.00,VWS V14.00,2013-01-16 07:30:00,
2013-01-16 01:45:00,40.6,36.5,30.17,NW,315,4.0,11.0,85,0.00,,,0.00,0.00,VWS V14.00,2013-01-16 07:45:00,
2013-01-16 02:00:00,40.7,36.5,30.17,NW,315,4.0,10.0,85,0.00,,,0.00,0.00,VWS V14.00,2013-01-16 08:00:00,
2013-01-16 02:15:00,40.6,36.2,30.17,NW,315,4.0,10.0,84,0.00,,,0.00,0.00,VWS V14.00,2013-01-16 08:15:00,
2013-01-16 02:30:00,40.6,35.8,30.18,NW,315,5.0,12.0,83,0.00,,,0.00,0.00,VWS V14.00,2013-01-16 08:30:00,
2013-01-16 02:45:00,40.6,35.8,30.18,NW,315,4.0,9.0,83,0.00,,,0.00,0.00,VWS V14.00,2013-01-16 08:45:00,
2013-01-16 03:00:00,40.7,35.6,30.18,NW,315,3.0,10.0,82,0.00,,,0.00,0.00,VWS V14.00,2013-01-16 09:00:00,
2013-01-16 03:15:00,40.7,35.6,30.19,NW,315,3.0,9.0,82,0.00,,,0.00,0.00,VWS V14.00,2013-01-16 09:15:00,
2013-01-16 03:30:00,40.7,35.3,30.20,NW,315,3.0,11.0,81,0.00,,,0.00,0.00,VWS V14.00,2013-01-16 09:30:00,
2013-01-16 03:45:00,40.8,35.1,30.19,NNW,338,3.0,7.0,80,0.00,,,0.00,0.00,VWS V14.00,2013-01-16 09:45:00,
2013-01-16 04:00:00,40.7,35.3,30.19,NW,315,3.0,7.0,81,0.00,,,0.00,0.00,VWS V14.00,2013-01-16 10:00:00,
2013-01-16 04:15:00,40.6,35.2,30.19,WNW,292,3.0,7.0,81,0.00,,,0.00,0.00,VWS V14.00,2013-01-16 10:15:00,
2013-01-16 04:30:00,40.6,34.9,30.19,WNW,292,3.0,7.0,80,0.00,,,0.00,0.00,VWS V14.00,2013-01-16 10:30:00,
2013-01-16 04:45:00,40.6,34.9,30.19,NW,315,2.0,6.0,80,0.00,,,0.00,0.00,VWS V14.00,2013-01-16 10:45:00,
2013-01-16 05:00:00,40.5,34.5,30.19,NW,315,3.0,7.0,79,0.00,,,0.00,0.00,VWS V14.00,2013-01-16 11:00:00,
2013-01-16 05:15:00,40.5,34.5,30.21,NW,315,2.0,6.0,79,0.00,,,0.00,0.00,VWS V14.00,2013-01-16 11:15:00,
2013-01-16 05:30:00,40.5,34.8,30.21,NW,315,2.0,7.0,80,0.00,,,0.00,0.00,VWS V14.00,2013-01-16 11:30:00,
2013-01-16 05:45:00,40.4,34.4,30.21,West,278,1.0,6.0,79,0.00,,,0.00,0.00,VWS V14.00,2013-01-16 11:45:00,
2013-01-16 06:00:00,40.2,33.9,30.22,WNW,292,3.0,10.0,78,0.00,,,0.00,0.00,VWS V14.00,2013-01-16 12:00:00,
2013-01-16 06:15:00,39.8,33.2,30.23,WNW,292,4.0,12.0,77,0.00,,,0.00,0.00,VWS V14.00,2013-01-16 12:15:00,
2013-01-16 06:30:00,39.4,32.8,30.24,WNW,292,4.0,13.0,77,0.00,,,0.00,0.00,VWS V14.00,2013-01-16 12:30:00,
2013-01-16 06:45:00,39.0,32.1,30.25,WNW,292,4.0,14.0,76,0.00,,,0.00,0.00,VWS V14.00,2013-01-16 12:45:00,
2013-01-16 07:00:00,38.6,32.0,30.25,WNW,292,4.0,11.0,77,0.00,,,0.00,0.00,VWS V14.00,2013-01-16 13:00:00,
2013-01-16 07:15:00,38.2,31.3,30.26,WNW,292,4.0,12.0,76,0.00,,,0.00,0.00,VWS V14.00,2013-01-16 13:15:00,
2013-01-16 07:30:00,37.9,30.7,30.26,WNW,292,4.0,12.0,75,0.00,,,0.00,5.00,VWS V14.00,2013-01-16 13:30:00,
2013-01-16 07:45:00,37.7,30.8,30.28,WNW,292,4.0,13.0,76,0.00,,,0.00,15.00,VWS V14.00,2013-01-16 13:45:00,
2013-01-16 08:00:00,37.9,31.0,30.27,WNW,292,4.0,13.0,76,0.00,,,0.00,52.00,VWS V14.00,2013-01-16 14:00:00,
2013-01-16 08:15:00,38.4,31.2,30.29,WNW,292,3.0,12.0,75,0.00,,,0.00,110.00,VWS V14.00,2013-01-16 14:15:00,
2013-01-16 08:30:00,38.7,30.8,30.29,WNW,292,4.0,11.0,73,0.00,,,0.00,171.00,VWS V14.00,2013-01-16 14:30:00,
2013-01-16 08:45:00,39.6,31.0,30.29,NW,315,3.0,7.0,71,0.00,,,0.00,241.00,VWS V14.00,2013-01-16 14:45:00,
2013-01-16 09:00:00,40.6,31.2,30.29,NW,315,2.0,9.0,69,0.00,,,0.00,296.00,VWS V14.00,2013-01-16 15:00:00,
2013-01-16 09:15:00,41.2,31.5,30.30,NW,315,3.0,9.0,68,0.00,,,0.00,349.00,VWS V14.00,2013-01-16 15:15:00,
2013-01-16 09:30:00,42.0,31.5,30.30,NW,315,3.0,7.0,66,0.00,,,0.00,395.00,VWS V14.00,2013-01-16 15:30:00,
2013-01-16 09:45:00,42.8,31.1,30.30,NW,315,3.0,10.0,63,0.00,,,0.00,441.00,VWS V14.00,2013-01-16 15:45:00,
2013-01-16 10:00:00,43.4,31.3,30.31,WNW,292,4.0,10.0,62,0.00,,,0.00,483.00,VWS V14.00,2013-01-16 16:00:00,
2013-01-16 10:15:00,43.9,30.9,30.31,WNW,292,5.0,14.0,60,0.00,,,0.00,523.00,VWS V14.00,2013-01-16 16:15:00,
2013-01-16 10:30:00,44.9,30.2,30.30,WNW,292,5.0,13.0,56,0.00,,,0.00,560.00,VWS V14.00,2013-01-16 16:30:00,
2013-01-16 10:45:00,45.9,30.2,30.30,WNW,292,4.0,11.0,54,0.00,,,0.00,591.00,VWS V14.00,2013-01-16 16:45:00,
2013-01-16 11:00:00,47.1,30.4,30.29,NW,315,3.0,10.0,52,0.00,,,0.00,618.00,VWS V14.00,2013-01-16 17:00:00,
2013-01-16 11:15:00,48.3,30.5,30.29,WNW,292,4.0,10.0,50,0.00,,,0.00,643.00,VWS V14.00,2013-01-16 17:15:00,
2013-01-16 11:30:00,48.7,30.9,30.27,WNW,292,5.0,14.0,50,0.00,,,0.00,663.00,VWS V14.00,2013-01-16 17:30:00,
2013-01-16 11:45:00,49.8,29.9,30.26,WNW,292,4.0,10.0,46,0.00,,,0.00,680.00,VWS V14.00,2013-01-16 17:45:00,
2013-01-16 12:00:00,50.6,30.6,30.25,WNW,292,4.0,11.0,46,0.00,,,0.00,691.00,VWS V14.00,2013-01-16 18:00:00,
2013-01-16 12:15:00,51.0,30.4,30.24,NW,315,4.0,11.0,45,0.00,,,0.00,699.00,VWS V14.00,2013-01-16 18:15:00,
2013-01-16 12:30:00,51.6,31.5,30.24,WNW,292,5.0,13.0,46,0.00,,,0.00,701.00,VWS V14.00,2013-01-16 18:30:00,
2013-01-16 12:45:00,51.9,31.2,30.22,WNW,292,5.0,16.0,45,0.00,,,0.00,699.00,VWS V14.00,2013-01-16 18:45:00,
2013-01-16 13:00:00,52.3,30.5,30.21,WNW,292,5.0,13.0,43,0.00,,,0.00,693.00,VWS V14.00,2013-01-16 19:00:00,
2013-01-16 13:15:00,53.1,31.8,30.21,WNW,292,5.0,12.0,44,0.00,,,0.00,683.00,VWS V14.00,2013-01-16 19:15:00,
2013-01-16 13:30:00,52.8,30.4,30.20,WNW,292,5.0,13.0,42,0.00,,,0.00,671.00,VWS V14.00,2013-01-16 19:30:00,
2013-01-16 13:45:00,53.1,31.2,30.19,WNW,292,6.0,16.0,43,0.00,,,0.00,651.00,VWS V14.00,2013-01-16 19:45:00,
2013-01-16 14:00:00,53.5,30.4,30.18,WNW,292,5.0,17.0,41,0.00,,,0.00,633.00,VWS V14.00,2013-01-16 20:00:00,
2013-01-16 14:30:00,53.9,30.8,30.18,WNW,296,2.0,7.0,41,0.00,,,0.00,557.00,VWS V14.00,2013-01-16 20:30:00,
2013-01-16 14:45:00,54.3,31.1,30.17,WNW,292,5.0,14.0,41,0.00,,,0.00,542.00,VWS V14.00,2013-01-16 20:45:00,
2013-01-16 15:00:00,54.1,32.1,30.17,WNW,292,5.0,12.0,43,0.00,,,0.00,508.00,VWS V14.00,2013-01-16 21:00:00,
2013-01-16 15:15:00,54.4,31.2,30.17,WNW,292,5.0,15.0,41,0.00,,,0.00,466.00,VWS V14.00,2013-01-16 21:15:00,
2013-01-16 15:30:00,54.7,30.2,30.17,WNW,292,4.0,14.0,39,0.00,,,0.00,422.00,VWS V14.00,2013-01-16 21:30:00,
2013-01-16 15:45:00,55.1,31.8,30.17,WNW,292,5.0,13.0,41,0.00,,,0.00,379.00,VWS V14.00,2013-01-16 21:45:00,
2013-01-16 16:00:00,55.1,30.0,30.17,WNW,292,4.0,11.0,38,0.00,,,0.00,336.00,VWS V14.00,2013-01-16 22:00:00,
2013-01-16 16:15:00,54.8,28.4,30.17,WNW,292,3.0,12.0,36,0.00,,,0.00,287.00,VWS V14.00,2013-01-16 22:15:00,
2013-01-16 16:30:00,54.9,29.1,30.16,WNW,292,2.0,9.0,37,0.00,,,0.00,234.00,VWS V14.00,2013-01-16 22:30:00,
2013-01-16 16:45:00,54.4,29.3,30.16,WNW,292,3.0,9.0,38,0.00,,,0.00,141.00,VWS V14.00,2013-01-16 22:45:00,
2013-01-16 17:00:00,53.7,29.4,30.17,WNW,292,2.0,9.0,39,0.00,,,0.00,64.00,VWS V14.00,2013-01-16 23:00:00,
2013-01-16 17:15:00,53.1,30.6,30.18,NW,315,1.0,4.0,42,0.00,,,0.00,39.00,VWS V14.00,2013-01-16 23:15:00,
2013-01-16 17:30:00,52.1,29.7,30.18,NNW,338,2.0,6.0,42,0.00,,,0.00,25.00,VWS V14.00,2013-01-16 23:30:00,
2013-01-16 17:45:00,51.1,30.5,30.19,NNW,338,1.0,5.0,45,0.00,,,0.00,15.00,VWS V14.00,2013-01-16 23:45:00,
2013-01-16 18:00:00,50.0,29.5,30.19,NNW,338,0.0,3.0,45,0.00,,,0.00,4.00,VWS V14.00,2013-01-17 00:00:00,
2013-01-16 18:15:00,49.0,29.7,30.20,NNW,338,0.0,1.0,47,0.00,,,0.00,0.00,VWS V14.00,2013-01-17 00:15:00,
2013-01-16 18:30:00,48.2,30.0,30.20,NNW,338,0.0,0.0,49,0.00,,,0.00,0.00,VWS V14.00,2013-01-17 00:30:00,
2013-01-16 18:45:00,47.5,28.8,30.21,NNW,338,0.0,1.0,48,0.00,,,0.00,0.00,VWS V14.00,2013-01-17 00:45:00,
2013-01-16 19:00:00,47.7,28.0,30.21,NNW,338,0.0,1.0,46,0.00,,,0.00,0.00,VWS V14.00,2013-01-17 01:00:00,
2013-01-16 19:15:00,48.2,27.9,30.23,NNW,338,0.0,2.0,45,0.00,,,0.00,0.00,VWS V14.00,2013-01-17 01:15:00,
2013-01-16 19:30:00,47.7,29.0,30.23,NNW,338,0.0,2.0,48,0.00,,,0.00,0.00,VWS V14.00,2013-01-17 01:30:00,
2013-01-16 19:45:00,46.2,30.0,30.23,NNW,338,0.0,0.0,53,0.00,,,0.00,0.00,VWS V14.00,2013-01-17 01:45:00,
2013-01-16 20:00:00,45.0,30.7,30.23,NNW,338,0.0,0.0,57,0.00,,,0.00,0.00,VWS V14.00,2013-01-17 02:00:00,
2013-01-16 20:15:00,44.4,31.0,30.24,NNW,338,0.0,0.0,59,0.00,,,0.00,0.00,VWS V14.00,2013-01-17 02:15:00,
2013-01-16 20:30:00,43.7,31.5,30.25,NNW,338,0.0,0.0,62,0.00,,,0.00,0.00,VWS V14.00,2013-01-17 02:30:00,
2013-01-16 20:45:00,42.7,30.6,30.25,NNW,338,0.0,0.0,62,0.00,,,0.00,0.00,VWS V14.00,2013-01-17 02:45:00,
2013-01-16 21:00:00,42.0,29.9,30.25,NNW,338,0.0,0.0,62,0.00,,,0.00,0.00,VWS V14.00,2013-01-17 03:00:00,
2013-01-16 21:15:00,41.5,30.2,30.25,NNW,338,0.0,0.0,64,0.00,,,0.00,0.00,VWS V14.00,2013-01-17 03:15:00,
2013-01-16 21:30:00,41.1,30.6,30.25,NNW,338,0.0,0.0,66,0.00,,,0.00,0.00,VWS V14.00,2013-01-17 03:30:00,
2013-01-16 21:45:00,40.7,29.5,30.24,NNW,338,0.0,0.0,64,0.00,,,0.00,0.00,VWS V14.00,2013-01-17 03:45:00,
2013-01-16 22:00:00,40.4,29.2,30.24,NNW,338,0.0,0.0,64,0.00,,,0.00,0.00,VWS V14.00,2013-01-17 04:00:00,
2013-01-16 22:15:00,40.3,29.9,30.24,NNW,338,0.0,0.0,66,0.00,,,0.00,0.00,VWS V14.00,2013-01-17 04:15:00,
2013-01-16 22:30:00,39.8,29.8,30.24,NNW,338,0.0,0.0,67,0.00,,,0.00,0.00,VWS V14.00,2013-01-17 04:30:00,
2013-01-16 22:45:00,39.5,29.5,30.24,NNW,338,0.0,0.0,67,0.00,,,0.00,0.00,VWS V14.00,2013-01-17 04:45:00,
2013-01-16 23:00:00,39.4,30.1,30.24,NNW,338,0.0,0.0,69,0.00,,,0.00,0.00,VWS V14.00,2013-01-17 05:00:00,
2013-01-16 23:15:00,38.9,30.3,30.24,NNW,338,0.0,0.0,71,0.00,,,0.00,0.00,VWS V14.00,2013-01-17 05:15:00,
2013-01-16 23:30:00,38.6,30.7,30.25,NNW,338,0.0,0.0,73,0.00,,,0.00,0.00,VWS V14.00,2013-01-17 05:30:00,
2013-01-16 23:45:00,38.3,31.1,30.25,NNW,338,0.0,0.0,75,0.00,,,0.00,0.00,VWS V14.00,2013-01-17 05:45:00,